Weather observations for the past three days for
La Junta Municipal Airport
Imperial (Metric)
Date Time (mdt) Wind (mph) Vis. (mi.) Weather Sky Cond. Temperature (ºF) Relative Humidity Wind Chill (°F) Heat Index (°F) Pressure Precipitation (in)
Air Dwpt 6 hour altimeter (in) sea level (mb) 1 hr 3 hr 6 hr
Max. Min.
22 00:53 W 9 8.00 Fair CLR 61 57 87% 30.27 1019.9
21 23:53 NW 10 8.00 Partly Cloudy SCT110 63 57 73.9 62.1 81% 30.28 1020.4
21 22:53 W 13 8.00 Overcast OVC100 62.1 57 84% 30.29 1021.0
21 21:53 W 13 7.00 Fair CLR 62.1 57.9 86% 30.27 1020.2
21 20:53 NW 10 8.00 Fair CLR 62.1 57 84% 30.25 1019.6
21 19:53 NW 6 7.00 Fair CLR 70 57 64% 30.25 1019.3
21 18:53 E 3 7.00 Fair CLR 71.1 57 61% 30.23 1019.2
21 17:53 SE 13 7.00 Fair CLR 73 57.9 78.1 66.9 59% 30.22 1018.5 0.05
21 16:53 E 12 7.00 Partly Cloudy FEW028 FEW040 SCT120 73.9 59 60% 30.22 1018.4 0.01
21 15:53 E 8 7.00 Mostly Cloudy BKN100 73 60.1 64% 30.24 1019.0
21 14:53 E 8 7.00 Light Rain FEW048 BKN080 OVC100 71.1 64.9 81% 30.24 1019.0 0.04 0.04
21 13:53 Calm 8.00 Overcast BKN043 OVC075 75.9 57.9 54% 78 30.24 1018.3
21 12:53 Vrbl 6 8.00 Partly Cloudy SCT042 77 57.9 52% 79 30.27 1019.1
21 11:53 Calm 7.00 A Few Clouds FEW055 FEW110 73 57.9 73 61 59% 30.29 1019.9
21 10:53 NE 6 7.00 Light Rain FEW039 BKN110 72 59 64% 30.3 1020.3
21 09:53 NE 7 7.00 Fair CLR 71.1 57 61% 30.29 1020.2
21 08:53 N 9 8.00 Mostly Cloudy BKN110 72 54 53% 30.29 1020.0
21 07:53 N 9 8.00 Fair CLR 68 54 61% 30.29 1020.0
21 06:53 NW 9 7.00 Fair CLR 61 55 81% 30.28 1019.9
21 05:53 NW 12 7.00 Fair CLR 62.1 55 73 62.1 78% 30.27 1019.4
21 04:53 NW 13 9.00 Fair CLR 63 55.9 78% 30.28 1019.3
21 03:53 NW 15 8.00 Overcast OVC060 63 57 81% 30.3 1019.9
21 01:53 NW 10 9.00 Overcast FEW055 SCT075 OVC110 69.1 57 66% 30.29 1019.4
21 00:53 N 15 8.00 Overcast BKN055 OVC080 70 60.1 71% 30.3 1019.5
20 23:53 NE 3 8.00 Fair CLR 72 59 84 72 64% 30.25 1017.9
20 22:53 Calm 9.00 Fair CLR 73 57.9 59% 30.24 1017.7
20 21:53 SE 6 9.00 Partly Cloudy FEW090 SCT110 73.9 59 60% 30.25 1018.3
20 20:53 E 13 9.00 Partly Cloudy FEW090 SCT100 75.9 57.9 54% 78 30.24 1018.1
20 19:53 E 13 7.00 Partly Cloudy SCT120 79 55 44% 80 30.22 1017.4
20 18:53 E 13 8.00 Fair CLR 82 52 35% 81 30.19 1016.5
20 17:53 E 15 8.00 Fair CLR 84 54 88 84 36% 83 30.18 1016.4
20 16:53 E 14 G 21 8.00 Fair CLR 86 52 31% 84 30.19 1016.5
20 15:53 NE 13 G 20 8.00 Fair CLR 87.1 52 30% 85 30.18 1015.9
20 14:53 NE 8 G 22 8.00 A Few Clouds FEW075 88 54 31% 86 30.2 1016.5
20 13:53 NE 7 G 22 8.00 Fair CLR 86 54 33% 84 30.22 1017.1
20 12:53 Vrbl 7 G 22 9.00 Fair CLR 87.1 53.1 31% 85 30.22 1017.1
20 11:53 N 14 G 22 8.00 Fair CLR 84.9 53.1 84.9 60.1 33% 83 30.23 1017.2
20 10:53 N 9 8.00 Fair CLR 81 57.9 45% 81 30.24 1017.7
20 09:53 NW 8 8.00 Fair CLR 75.9 60.1 58% 78 30.23 1017.8
20 08:53 NW 10 8.00 Fair CLR 72 59 64% 30.24 1018.3
20 07:53 NW 13 8.00 Fair CLR 68 57.9 70% 30.23 1017.8
20 06:53 NW 13 8.00 Fair CLR 63 57.9 84% 30.23 1017.7
20 05:53 NW 8 7.00 Fair CLR 60.1 57.9 72 60.1 93% 30.23 1017.5
20 04:53 W 9 9.00 Fair CLR 60.1 55.9 86% 30.22 1017.2
20 03:53 SW 7 9.00 Fair CLR 63 55 76% 30.22 1016.7
20 02:53 S 6 9.00 Fair CLR 64 55.9 75% 30.23 1017.1
20 01:53 SE 7 9.00 Fair CLR 64.9 59 81% 30.26 1018.5
20 00:53 NE 23 10.00 A Few Clouds and Breezy FEW075 66 57.9 75% 30.28 1019.1
19 23:53 SW 7 9.00 Fair CLR 70 60.1 93 69.1 71% 30.2 1016.3
19 22:53 SW 7 9.00 A Few Clouds FEW095 70 57.9 66% 30.17 1015.3
19 21:53 S 10 9.00 A Few Clouds FEW065 FEW085 73 57.9 59% 30.2 1016.2
19 20:53 SW 10 G 21 9.00 Overcast SCT090 OVC110 75 55 50% 78 30.16 1015.2
19 19:53 E 16 G 21 7.00 Light Rain FEW080 BKN100 80.1 54 41% 80 30.15 1014.7
19 18:53 E 17 8.00 A Few Clouds FEW100 84 54 36% 83 30.1 1013.0
19 17:53 Calm 8.00 Fair CLR 91 50 93 86 25% 88 30.07 1011.6
19 16:53 Calm 8.00 Fair CLR 91.9 50 24% 89 30.06 1011.4
19 15:53 Calm 8.00 Fair CLR 91.9 50 24% 89 30.08 1011.9
19 14:53 SW 3 8.00 Fair CLR 91 48.9 24% 88 30.1 1012.6
19 13:53 Vrbl 3 8.00 Fair CLR 89.1 53.1 29% 87 30.1 1012.8
19 12:53 S 5 9.00 Fair CLR 89.1 52 28% 87 30.12 1013.3
19 11:53 Calm 9.00 Fair CLR 86 57 87.1 64 37% 85 30.14 1014.0
19 10:53 S 6 8.00 Fair CLR 84 57.9 41% 83 30.15 1014.4
19 09:53 Vrbl 5 8.00 Fair CLR 80.1 57.9 47% 81 30.16 1014.9
19 08:53 SW 7 8.00 Fair CLR 77 57 50% 79 30.17 1015.0
19 07:53 SW 10 8.00 Fair CLR 71.1 57.9 63% 30.16 1015.1
19 06:53 SW 7 8.00 Fair CLR 66 57.9 75% 30.16 1015.3
19 05:53 SW 9 8.00 Fair CLR 64.9 57.9 71.1 62.1 78% 30.15 1014.9
19 04:53 Calm 9.00 Fair CLR 63 57.9 84% 30.16 1015.0
19 03:53 S 5 9.00 Fair CLR 66 59 78% 30.15 1014.5
19 02:53 S 5 9.00 Fair CLR 66 60.1 81% 30.17 1015.1
19 01:53 SE 3 9.00 Fair CLR 66 60.1 81% 30.17 1015.2
Date Time (mdt) Wind (mph) Vis. (mi.) Weather Sky Cond. Air Dwpt Max. Min. Relative Humidity Wind Chill (°F) Heat Index (°F) altimeter (in) sea level (mb) 1 hr 3 hr 6 hr
6 hour
Temperature (ºF) Pressure Precipitation (in)